Alma, GA

11:19 AM EDT on June 28, 2017 (GMT -0400)
Bacon County

Weather History for KAMG - March, 2013

Change the Weather History Date:

Monday, March 25, 2013

  Actual Average Record
Temperature  
Mean Temperature 52 °F 62 °F  
Max Temperature 61 °F 74 °F 89 °F (1954)
Min Temperature 43 °F 50 °F 32 °F (1956)
Degree Days  
Heating Degree Days 13 4  
Month to date heating degree days 298 164  
Since 1 July heating degree days 1457 1565  
Cooling Degree Days 0 1  
Month to date cooling degree days 4 25  
Year to date cooling degree days 31 41  
Growing Degree Days 2 (Base 50)    
Moisture  
Dew Point 30 °F    
Average Humidity 43    
Maximum Humidity 62    
Minimum Humidity 23    
Precipitation  
Precipitation 0.00 in 0.14 in 1.14 in (1994)
Month to date precipitation 2.28 3.89  
Year to date precipitation 12.39 11.95  
Snow  
Snow 0.00 in 0.00 in 0.00 in ()
Month to date snowfall T 0.0  
Since 1 July snowfall T 0.1  
Snow Depth 0.00 in    
Sea Level Pressure  
Sea Level Pressure 29.85 in    
Wind  
Wind Speed 14 mph (WNW)    
Max Wind Speed 25 mph    
Max Gust Speed 36 mph    
Visibility 10 miles    
Events      
T = Trace of Precipitation, MM = Missing Value Source: NWS Daily Summary

Daily Weather History Graph

Daily Weather History Graph

Search for Another Location

Airport or City:

Trip Planner

Search our weather history database for the weather conditions in past years. The results will help you decide how hot, cold, wet, or windy it might be!

Date:

Astronomy

Mar. 25, 2013 Rise Set
Actual Time 7:27 AM EDT 7:45 PM EDT
Civil Twilight 7:02 AM EDT 8:09 PM EDT
Nautical Twilight 6:34 AM EDT 8:37 PM EDT
Astronomical Twilight 6:05 AM EDT 9:06 PM EDT
Moon 6:18 PM EDT (3/25) 6:04 AM EDT (3/25)
Length of Visible Light 13h 06m
Length of Day
12h 17m
Waxing Gibbous, 96% of the Moon is Illuminated
Mar 25
Waxing Gibbous
Mar 27
Full
Apr 3
Last Quarter
Apr 10
New
Apr 18
First Quarter

Hourly Weather History & Observations

Time (EDT) Temp. Windchill Dew Point Humidity Pressure Visibility Wind Dir Wind Speed Gust Speed Precip Events Conditions
12:12 AM 60.8 °F - 57.2 °F 88% 29.65 in 10.0 mi NW 5.8 mph - N/A   Overcast
12:37 AM 62.6 °F - 51.8 °F 68% 29.67 in 10.0 mi WNW 17.3 mph 26.5 mph N/A   Overcast
12:53 AM 61.0 °F - 39.9 °F 46% 29.67 in 10.0 mi WNW 17.3 mph 24.2 mph N/A   Overcast
1:53 AM 55.9 °F - 37.0 °F 49% 29.70 in 10.0 mi WNW 15.0 mph 21.9 mph N/A   Clear
2:53 AM 53.1 °F - 36.0 °F 52% 29.73 in 10.0 mi WNW 13.8 mph 25.3 mph N/A   Clear
3:53 AM 51.1 °F - 37.0 °F 59% 29.74 in 10.0 mi West 12.7 mph 21.9 mph N/A   Clear
4:53 AM 48.0 °F - 35.1 °F 61% 29.77 in 10.0 mi WNW 17.3 mph 24.2 mph N/A   Clear
5:53 AM 46.0 °F 39.9 °F 32.0 °F 58% 29.80 in 10.0 mi WNW 13.8 mph 25.3 mph N/A   Clear
7:53 AM 43.0 °F 36.8 °F 30.9 °F 62% 29.86 in 10.0 mi WNW 11.5 mph 18.4 mph N/A   Clear
8:53 AM 45.0 °F 38.2 °F 30.0 °F 56% 29.87 in 10.0 mi West 15.0 mph 21.9 mph N/A   Clear
9:53 AM 46.0 °F 39.3 °F 30.0 °F 54% 29.88 in 10.0 mi West 16.1 mph 27.6 mph N/A   Clear
10:53 AM 50.0 °F - 30.9 °F 48% 29.89 in 10.0 mi West 16.1 mph 23.0 mph N/A   Clear
11:53 AM 51.1 °F - 30.0 °F 44% 29.90 in 10.0 mi West 15.0 mph 21.9 mph N/A   Clear
12:53 PM 54.0 °F - 28.0 °F 37% 29.90 in 10.0 mi West 18.4 mph 28.8 mph N/A   Clear
1:53 PM 55.0 °F - 25.0 °F 31% 29.89 in 10.0 mi West 17.3 mph 34.5 mph N/A   Clear
2:53 PM 57.0 °F - 25.0 °F 29% 29.88 in 10.0 mi West 21.9 mph 31.1 mph N/A   Clear
3:53 PM 57.0 °F - 23.0 °F 27% 29.87 in 10.0 mi West 17.3 mph 28.8 mph N/A   Clear
4:53 PM 57.9 °F - 21.9 °F 25% 29.87 in 10.0 mi WNW 16.1 mph 34.5 mph N/A   Clear
5:53 PM 57.0 °F - 19.9 °F 24% 29.88 in 10.0 mi WNW 17.3 mph 25.3 mph N/A   Clear
6:53 PM 55.0 °F - 19.0 °F 24% 29.90 in 10.0 mi WNW 23.0 mph 32.2 mph N/A   Clear
7:53 PM 52.0 °F - 21.9 °F 31% 29.93 in 10.0 mi West 9.2 mph - N/A   Clear
8:53 PM 50.0 °F - 24.1 °F 36% 29.96 in 10.0 mi WNW 10.4 mph - N/A   Clear
9:53 PM 48.9 °F - 25.0 °F 39% 29.99 in 10.0 mi WNW 8.1 mph - N/A   Clear
10:53 PM 46.9 °F - 24.1 °F 41% 30.02 in 10.0 mi NW 6.9 mph - N/A   Clear
11:53 PM 46.0 °F 41.0 °F 23.0 °F 40% 30.05 in 10.0 mi NW 10.4 mph 17.3 mph N/A   Clear